Temperature
7 7 6 6 7 6 6 7 8 9 9 10 10 9 8 7 6 6 6 6 6 6 6 6 6 6 6 6 6 6 5 5 5 5 5 4 4 4 4 4 4 4 3 3
6 6 6 5 6 6 6 7 7 7 8 9 8 7 7 7 6 6 6 6 6 6 6 6 6 6 6 6 5 5 5 5 5 4 4 4 4 4 4 3 3 3 3 3
7 6 6 7 7 6 6 6 7 7 8 8 7 7 7 6 6 6 6 6 6 6 6 5 5 5 5 5 5 5 5 5 4 4 4 4 3 3 3 3 3 3 3 2
6 6 6 9 7 7 6 7 7 7 7 7 7 6 5 5 5 5 5 5 5 5 5 5 5 5 5 5 5 5 4 4 4 4 3 3 3 3 3 3 2 2 2 2
5 6 7 8 7 6 6 6 6 6 6 6 5 5 6 5 5 5 5 5 5 5 5 5 5 5 4 4 4 4 4 4 4 3 3 3 3 2 2 2 2 2 2 1
4 5 6 8 6 5 6 7 6 6 6 5 5 6 7 5 5 4 4 4 5 5 4 4 4 4 4 4 4 4 3 3 3 3 2 2 2 2 2 2 2 1 1 1
4 5 7 7 5 5 6 7 6 5 5 4 5 5 5 4 4 4 4 4 4 4 4 4 4 4 4 3 3 3 3 3 3 2 2 2 2 1 1 1 1 1 1 0
4 4 5 5 4 5 6 5 5 4 4 4 4 4 4 4 4 3 3 3 3 3 3 3 3 3 3 3 3 3 2 2 2 2 2 1 1 1 1 1 0 0 0 -0
5 6 6 4 5 5 5 4 4 4 4 4 3 3 3 3 3 3 3 3 3 3 3 3 3 3 2 2 2 2 2 2 2 2 1 1 1 1 1 0 -0 -0 -0 -0
4 5 5 4 4 4 4 4 4 4 3 3 3 3 3 2 2 2 2 2 2 2 2 2 2 2 2 2 2 2 2 1 1 1 1 1 1 0 0 -0 -0 -0 -1 -1
3 4 4 4 4 4 4 3 3 3 3 2 2 2 2 2 2 2 2 2 2 2 2 2 2 2 2 2 1 1 1 1 1 1 1 0 0 -0 -0 -0 -1 -1 -1 -1
4 5 4 4 4 3 3 3 3 2 2 2 2 2 2 1 1 1 1 1 1 1 1 1 1 1 1 1 1 1 1 1 0 0 0 -0 -0 -0 -0 -1 -1 -1 -1 -1
4 3 3 3 3 3 2 2 2 2 2 1 1 1 1 1 1 1 1 1 1 1 1 1 1 1 1 1 1 0 0 0 0 -0 -0 -1 -1 -1 -1 -1 -1 -1 -1 -1
2 2 2 2 2 2 2 1 1 1 1 1 1 1 1 1 1 1 1 1 0 0 0 0 0 0 0 0 0 0 -0 -0 -0 -0 -1 -1 -1 -1 -1 -2 -2 -1 -2 -2
2 1 1 1 1 1 1 1 1 1 1 1 1 1 1 1 0 0 0 0 0 0 -0 -0 -0 0 -0 -0 -0 -0 -1 -1 -1 -1 -1 -1 -1 -2 -2 -2 -2 -2 -2 -2
1 1 1 1 1 1 0 0 0 0 0 0 0 0 0 0 0 0 0 -0 -0 -0 -0 -1 -1 -0 -1 -1 -1 -1 -1 -1 -1 -1 -1 -2 -2 -2 -2 -2 -2 -2 -3 -3
-0 -0 -0 -0 -0 -0 -0 -0 -0 -0 -0 -0 -0 -0 -0 -0 -0 -0 -0 -0 -1 -1 -1 -1 -1 -1 -1 -1 -1 -1 -1 -2 -2 -2 -2 -2 -2 -2 -3 -3 -3 -3 -3 -3
-0 -0 -0 -1 -0 -0 -0 -0 -0 -0 -1 -1 -1 -1 -1 -1 -1 -1 -1 -1 -1 -1 -1 -1 -1 -1 -1 -2 -2 -2 -2 -2 -2 -2 -2 -3 -3 -3 -3 -3 -3 -3 -3 -3
-1 -1 -1 -1 -1 -1 -1 -0 -1 -1 -1 -1 -1 -1 -1 -1 -1 -1 -1 -1 -1 -2 -1 -2 -2 -2 -2 -2 -2 -2 -2 -2 -3 -3 -3 -3 -3 -3 -3 -3 -3 -3 -3 -3
-1 -1 -1 -1 -1 -1 -1 -1 -1 -1 -1 -1 -1 -2 -2 -1 -2 -2 -2 -2 -2 -2 -2 -2 -2 -2 -2 -2 -2 -3 -3 -3 -3 -3 -3 -3 -3 -3 -4 -4 -4 -4 -4 -4
-1 -1 -1 -1 -1 -1 -1 -1 -1 -1 -1 -2 -2 -2 -2 -2 -2 -2 -2 -2 -2 -2 -2 -2 -2 -2 -2 -3 -3 -3 -3 -3 -3 -3 -3 -4 -4 -4 -4 -4 -4 -4 -4 -4
-2 -2 -2 -2 -2 -2 -2 -2 -2 -2 -2 -2 -2 -2 -2 -2 -2 -2 -2 -3 -2 -2 -3 -3 -3 -3 -3 -3 -3 -3 -3 -3 -3 -3 -4 -4 -4 -4 -4 -4 -4 -4 -4 -4
-2 -2 -2 -2 -2 -2 -2 -2 -2 -2 -2 -2 -2 -2 -3 -3 -3 -3 -3 -3 -3 -3 -3 -3 -3 -3 -3 -3 -3 -3 -3 -3 -3 -4 -4 -4 -4 -4 -4 -4 -4 -4 -4 -4
-2 -2 -2 -2 -2 -2 -2 -2 -2 -2 -2 -2 -3 -3 -3 -3 -3 -3 -3 -3 -3 -3 -3 -3 -3 -3 -3 -3 -3 -3 -3 -4 -4 -4 -4 -4 -4 -4 -4 -4 -4 -4 -4 -5
-3 -3 -3 -3 -3 -2 -2 -2 -2 -3 -3 -3 -3 -3 -3 -3 -3 -3 -3 -3 -3 -3 -3 -3 -4 -4 -4 -4 -4 -4 -4 -4 -4 -4 -4 -4 -4 -4 -4 -4 -5 -5 -5 -5
-3 -3 -3 -3 -3 -3 -3 -3 -3 -3 -3 -3 -3 -3 -3 -3 -3 -3 -3 -3 -3 -3 -4 -4 -4 -4 -4 -4 -4 -4 -4 -4 -4 -4 -4 -4 -4 -4 -5 -5 -5 -5 -5 -5
-3 -3 -3 -3 -3 -3 -3 -3 -3 -3 -4 -4 -4 -4 -4 -4 -4 -4 -4 -4 -4 -4 -4 -4 -4 -4 -4 -4 -4 -4 -4 -4 -4 -4 -4 -5 -5 -5 -5 -5 -5 -5 -5 -5
Wind_Speed
11 10 9 11 12 11 13 13 11 11 12 12 9 8 7 5 5 5 4 4 4 4 3 3 3 4 4 4 4 4 4 5 5 5 4 4 4 4 4 5 5 5 5 5
8 8 9 13 15 15 15 15 17 18 17 12 10 7 7 7 7 7 6 5 5 5 4 4 4 4 4 4 4 4 5 5 5 4 4 4 5 5 5 5 5 5 6 6
7 5 8 11 11 13 10 11 11 13 11 7 7 7 8 7 7 7 7 6 6 6 5 5 5 5 5 5 5 5 5 5 5 5 5 5 5 5 5 6 6 6 6 6
5 5 8 4 1 6 9 9 11 10 8 7 7 8 7 7 7 7 7 7 7 6 6 5 5 4 5 5 5 5 5 6 6 5 6 5 5 6 6 5 6 6 6 6
4 7 10 7 3 4 6 6 6 9 9 8 6 6 5 5 6 7 8 7 7 6 6 5 5 4 4 4 5 5 6 6 6 6 6 6 6 6 6 6 6 6 6 6
6 6 7 3 1 0 3 5 3 4 6 5 4 5 5 5 7 7 7 6 6 5 5 6 5 4 4 5 6 6 6 6 6 6 7 7 7 7 6 5 6 6 6 6
11 9 9 3 1 3 4 2 1 3 4 4 5 7 8 8 8 8 8 7 6 5 5 5 4 4 6 6 7 7 6 6 6 6 7 7 7 6 6 5 5 6 6 6
8 9 9 3 4 4 4 3 3 4 5 6 8 9 9 9 9 8 7 7 6 5 6 5 5 5 6 8 7 6 6 6 7 7 6 5 6 6 5 5 6 6 5 6
8 8 4 4 5 5 4 5 5 6 7 8 10 11 11 10 9 8 7 7 6 6 6 6 6 6 7 8 6 6 6 7 7 6 6 6 6 6 5 5 5 5 5 5
8 11 10 9 9 9 8 8 8 8 9 10 11 12 11 10 9 8 8 7 6 6 7 7 7 7 8 7 6 6 7 7 6 6 6 6 5 5 5 5 5 5 5 5
11 12 11 10 8 8 9 9 9 10 10 10 11 11 11 10 9 8 8 7 6 7 8 8 7 8 7 6 6 7 7 6 6 6 6 5 5 5 6 6 6 6 6 5
12 10 9 11 9 8 10 10 10 11 11 10 9 11 10 10 9 8 8 8 8 8 8 8 8 8 7 7 6 7 6 6 5 5 5 5 5 5 6 8 8 10 9 8
13 10 10 11 10 9 9 10 10 10 10 10 9 9 9 9 8 8 9 9 9 9 9 8 8 8 8 7 7 7 7 7 5 5 5 5 5 5 5 5 8 10 10 11
11 9 10 10 10 9 9 9 8 8 9 9 8 8 8 8 8 9 9 9 8 8 8 8 8 8 7 7 7 7 7 7 6 6 6 5 5 5 5 5 5 5 7 10
8 8 9 9 8 7 7 7 7 8 8 8 7 7 8 8 9 9 9 7 7 8 8 8 8 8 7 7 7 7 7 6 6 6 5 5 5 5 5 6 6 5 5 5
6 6 6 7 8 7 7 8 8 9 9 9 8 8 8 8 9 9 8 7 7 8 8 8 9 8 7 7 7 6 7 8 7 6 5 5 5 6 6 6 6 5 5 5
6 6 6 7 8 8 8 9 9 10 9 9 10 9 8 8 8 8 8 7 8 9 9 9 9 8 7 7 7 6 6 6 7 6 6 6 6 6 6 6 6 6 6 6
7 8 8 8 8 9 9 9 8 9 9 9 9 8 8 8 9 9 8 7 7 8 9 8 8 7 7 7 6 6 5 5 5 6 5 5 6 6 6 6 6 7 6 6
5 7 7 8 8 8 8 8 8 8 8 8 8 9 9 9 8 8 7 7 8 9 8 7 7 7 7 7 6 5 6 6 6 6 5 7 7 6 6 6 6 6 6 5
5 6 7 8 7 7 7 8 7 7 7 7 7 8 8 8 7 7 7 8 8 7 7 7 7 7 7 6 6 5 6 6 6 6 5 6 6 6 6 6 6 6 6 6
7 7 7 7 8 8 8 7 7 7 7 6 6 7 8 8 7 6 6 8 7 6 7 7 6 6 5 5 6 5 6 6 6 6 6 6 6 6 6 6 6 6 6 6
7 7 8 8 7 8 8 7 7 7 7 7 7 7 7 8 7 7 7 7 7 7 6 5 5 6 6 6 5 5 6 6 6 5 6 6 6 6 6 6 6 6 6 5
8 8 8 8 8 8 8 8 7 7 7 7 8 8 8 7 6 6 7 6 5 7 6 6 7 8 8 6 5 5 5 6 6 5 5 5 6 6 6 6 6 5 5 5
8 8 8 8 7 7 9 9 8 7 7 8 8 8 7 6 6 6 6 7 8 9 7 7 9 10 8 5 5 5 5 5 5 5 5 5 5 5 5 5 5 5 5 6
8 8 8 8 8 8 8 8 8 8 8 7 8 8 7 6 6 6 6 7 8 8 7 8 10 10 6 5 5 5 5 5 5 5 5 5 5 5 5 5 5 5 5 5
9 8 8 8 8 8 7 7 7 7 7 7 7 7 6 5 6 6 6 7 8 8 7 6 6 6 5 5 5 5 5 5 5 5 5 5 5 5 5 5 6 5 5 5
8 8 7 8 8 7 7 7 7 8 7 7 8 7 7 6 6 6 7 6 6 6 6 5 5 5 5 5 5 5 4 4 4 4 4 5 5 5 5 6 5 5 5 5
Wind_Direction
264 271 268 262 258 240 231 237 248 261 264 276 287 285 283 274 269 268 268 268 266 265 261 255 257 258 257 255 252 248 247 249 254 258 258 258 256 256 256 254 251 247 247 248
272 264 262 265 259 248 243 244 249 263 272 280 290 286 276 270 266 265 264 266 267 266 265 261 260 259 258 254 251 247 249 254 258 259 256 254 256 256 255 255 252 247 247 248
271 285 286 265 248 231 230 228 232 246 262 284 287 283 280 276 266 263 265 268 266 266 267 267 265 258 254 251 247 247 251 256 256 254 255 255 255 253 254 256 254 249 249 250
275 282 251 260 158 218 229 244 233 247 269 280 286 295 286 276 272 273 273 273 271 269 268 271 269 261 254 248 242 245 251 255 256 254 257 259 256 255 256 257 256 254 253 253
241 260 272 273 235 205 219 254 237 244 266 281 297 298 282 283 281 281 278 276 274 270 268 269 264 256 249 248 246 247 251 254 255 253 255 257 257 259 260 259 259 257 257 255
227 246 256 271 99 201 219 246 226 239 269 285 295 288 301 323 303 292 287 282 276 273 270 265 262 249 245 251 252 253 256 260 261 255 253 254 258 261 260 258 261 262 258 256
230 242 263 279 131 160 223 281 353 273 280 277 274 285 302 306 301 296 293 289 282 274 268 266 262 249 252 256 257 261 263 262 261 257 254 256 259 259 257 256 259 261 261 262
213 229 248 162 155 203 273 323 290 283 282 279 282 291 293 294 294 294 293 290 284 277 276 274 260 248 255 261 267 267 261 259 260 259 257 253 253 256 254 251 254 260 263 269
213 234 279 198 229 257 270 272 276 277 279 279 284 287 289 289 288 287 285 284 283 280 279 276 264 252 257 267 269 265 260 261 262 261 258 252 249 250 250 246 250 258 260 266
252 261 266 266 264 264 262 270 280 282 283 282 284 286 286 285 283 283 282 279 280 278 275 275 271 263 263 267 263 257 259 263 263 260 260 255 249 245 244 244 248 256 258 262
254 269 281 273 259 270 280 280 281 283 283 280 280 281 282 282 280 278 277 275 272 268 270 275 277 272 268 264 256 255 259 260 259 256 255 255 250 247 246 247 246 250 258 260
258 266 268 280 286 285 280 279 283 288 289 284 277 278 280 278 276 274 274 274 271 267 268 271 273 274 271 261 250 250 255 256 254 252 251 251 254 261 248 249 255 255 260 263
263 276 275 280 285 282 280 282 285 282 281 283 280 275 275 277 276 275 273 270 267 268 270 273 273 272 270 260 249 246 249 253 253 251 249 249 249 253 268 264 251 252 255 258
262 270 274 275 282 288 286 286 286 284 281 278 276 275 274 275 275 272 270 270 270 270 270 270 270 271 271 263 251 248 251 250 248 251 249 248 248 250 254 263 270 270 258 256
259 256 263 278 285 289 292 291 289 287 287 285 281 276 273 272 274 275 275 274 271 269 270 270 270 272 272 261 252 250 251 250 248 250 249 249 248 249 252 254 260 268 275 267
272 268 265 271 280 290 294 290 284 284 287 287 285 281 278 275 276 278 277 270 265 268 272 272 271 274 270 259 254 251 249 245 244 249 250 249 247 247 249 251 254 258 260 265
255 265 272 277 284 289 286 281 278 280 283 283 283 285 284 283 281 280 280 276 270 271 273 272 273 276 268 257 252 251 252 248 238 245 247 247 247 247 249 250 252 256 258 258
249 257 261 264 269 279 287 289 286 284 282 282 285 283 280 276 277 281 286 288 285 283 279 274 273 272 266 258 252 251 249 247 244 244 246 246 249 249 249 250 252 255 261 259
258 264 268 271 272 275 280 284 285 286 287 285 281 280 279 277 278 281 284 281 280 283 287 284 276 272 270 262 253 251 248 247 247 247 248 249 251 249 248 249 251 253 256 256
272 277 280 282 282 278 280 286 290 290 290 287 285 286 286 285 284 281 279 275 272 277 285 286 283 277 272 263 250 249 247 246 248 249 249 249 250 251 251 251 253 254 253 252
277 281 284 287 289 288 282 282 284 286 289 287 281 282 285 289 287 280 278 282 286 283 280 277 275 273 270 265 254 253 248 248 249 249 249 250 252 254 253 253 253 253 253 254
279 281 284 286 286 288 288 284 278 278 283 285 285 285 287 289 288 282 272 272 282 284 284 279 276 271 270 271 262 254 249 249 251 251 251 251 253 253 253 252 253 254 253 254
279 279 280 281 281 284 286 283 276 274 276 278 280 280 280 282 282 281 286 285 282 283 284 278 278 277 278 275 264 257 254 252 252 251 251 252 252 253 254 254 254 253 252 252
279 279 279 282 283 281 281 281 279 278 276 277 274 271 272 279 281 271 273 283 285 285 283 281 283 283 282 274 265 259 256 254 253 254 254 254 253 253 254 256 256 255 253 252
277 277 276 276 276 274 274 278 282 281 280 281 280 277 270 265 268 277 278 276 277 281 281 279 281 281 277 268 264 261 259 256 255 255 253 253 254 255 256 256 255 255 255 253
275 275 275 271 269 271 273 274 275 277 279 281 284 282 279 274 269 272 275 275 274 276 276 276 276 275 270 264 262 261 261 263 262 257 253 254 256 257 257 257 257 255 255 255
275 276 277 279 276 268 265 266 267 271 272 273 281 283 282 281 277 275 275 276 278 276 275 274 272 268 265 261 259 258 257 257 256 257 257 257 257 257 257 256 256 254 254 253
Height
1513 1512 1513 1511 1508 1509 1509 1501 1497 1486 1487 1483 1484 1486 1486 1486 1486 1485 1484 1484 1484 1483 1483 1482 1482 1481 1481 1480 1479 1478 1478 1477 1476 1475 1474 1473 1472 1471 1470 1469 1468 1467 1466 1465
1512 1510 1510 1508 1502 1501 1500 1498 1494 1490 1486 1483 1484 1484 1484 1484 1483 1482 1482 1481 1481 1480 1480 1479 1479 1478 1477 1476 1476 1475 1474 1473 1472 1471 1470 1469 1468 1467 1466 1465 1464 1463 1462 1461
1505 1507 1506 1496 1489 1491 1491 1489 1489 1486 1482 1481 1482 1482 1481 1480 1480 1479 1478 1478 1477 1477 1476 1476 1475 1474 1474 1473 1472 1471 1470 1469 1468 1467 1466 1465 1464 1463 1462 1461 1459 1458 1457 1456
1507 1506 1500 1482 1485 1485 1485 1483 1484 1482 1481 1481 1480 1479 1478 1478 1477 1476 1475 1475 1474 1473 1472 1472 1471 1470 1470 1469 1468 1467 1466 1465 1464 1463 1462 1461 1459 1458 1457 1456 1455 1453 1452 1451
1508 1499 1486 1481 1483 1484 1484 1480 1479 1479 1478 1478 1478 1477 1475 1474 1473 1472 1472 1471 1470 1469 1469 1468 1467 1466 1465 1464 1463 1462 1461 1460 1459 1458 1457 1456 1454 1453 1452 1451 1450 1448 1447 1446
1505 1501 1488 1476 1482 1482 1483 1477 1476 1477 1476 1476 1476 1473 1471 1471 1470 1469 1467 1467 1466 1465 1464 1463 1463 1462 1460 1459 1458 1457 1456 1455 1454 1453 1452 1451 1450 1449 1448 1446 1445 1443 1442 1441
1501 1496 1481 1479 1482 1483 1481 1474 1476 1475 1475 1475 1474 1472 1471 1468 1467 1465 1464 1462 1461 1460 1459 1459 1458 1457 1456 1455 1454 1453 1452 1450 1449 1448 1447 1446 1445 1444 1443 1441 1440 1438 1437 1436
1495 1494 1483 1478 1480 1479 1475 1474 1474 1473 1473 1472 1470 1468 1466 1464 1463 1461 1459 1458 1457 1456 1455 1454 1454 1452 1451 1450 1449 1448 1446 1445 1444 1443 1442 1441 1440 1439 1438 1436 1435 1434 1432 1431
1483 1478 1475 1475 1474 1473 1473 1472 1471 1471 1470 1468 1466 1464 1462 1460 1458 1457 1455 1454 1453 1451 1450 1449 1449 1448 1446 1445 1444 1443 1441 1440 1439 1438 1437 1436 1435 1434 1432 1431 1430 1429 1428 1426
1479 1473 1472 1472 1471 1470 1470 1469 1468 1467 1466 1464 1462 1460 1458 1456 1454 1452 1451 1449 1448 1447 1445 1444 1444 1443 1442 1440 1439 1438 1436 1435 1434 1433 1432 1431 1430 1429 1427 1426 1425 1424 1423 1422
1473 1470 1469 1466 1467 1466 1466 1465 1464 1462 1461 1459 1457 1454 1453 1450 1449 1447 1446 1445 1443 1442 1441 1440 1439 1437 1436 1435 1434 1432 1431 1430 1429 1428 1427 1426 1425 1424 1422 1421 1421 1420 1419 1418
1465 1464 1465 1463 1463 1462 1461 1460 1458 1457 1454 1453 1451 1449 1447 1445 1444 1442 1441 1439 1438 1437 1436 1434 1433 1432 1431 1430 1429 1427 1426 1425 1423 1422 1421 1420 1419 1418 1417 1417 1416 1415 1414 1413
1461 1460 1460 1459 1458 1457 1456 1454 1453 1451 1449 1447 1446 1444 1442 1440 1439 1437 1436 1434 1433 1431 1430 1429 1427 1426 1425 1424 1423 1422 1420 1419 1418 1417 1416 1415 1414 1413 1412 1411 1410 1410 1409 1408
1457 1457 1455 1454 1453 1452 1451 1449 1447 1445 1444 1442 1441 1439 1437 1436 1434 1432 1430 1429 1428 1426 1425 1423 1422 1420 1420 1419 1418 1416 1415 1414 1413 1412 1411 1410 1409 1408 1407 1406 1405 1404 1403 1403
1452 1452 1451 1449 1448 1447 1446 1444 1442 1440 1439 1437 1435 1434 1432 1431 1428 1427 1425 1424 1422 1421 1419 1418 1416 1415 1414 1413 1412 1410 1409 1408 1408 1407 1406 1405 1404 1403 1402 1401 1400 1399 1398 1398
1447 1447 1446 1445 1444 1442 1441 1440 1438 1435 1434 1432 1430 1429 1427 1426 1423 1421 1420 1418 1417 1415 1413 1412 1410 1409 1408 1407 1406 1404 1404 1403 1402 1401 1400 1399 1399 1398 1397 1396 1395 1394 1394 1393
1443 1442 1441 1440 1439 1438 1437 1435 1433 1431 1429 1427 1426 1424 1422 1420 1418 1416 1415 1413 1411 1409 1408 1406 1405 1403 1402 1401 1400 1399 1398 1397 1396 1395 1395 1394 1393 1393 1392 1391 1390 1389 1389 1388
1439 1438 1438 1437 1435 1434 1432 1430 1429 1426 1424 1422 1421 1419 1417 1415 1413 1412 1410 1408 1406 1404 1402 1401 1399 1398 1397 1396 1395 1393 1392 1391 1391 1390 1389 1389 1388 1387 1387 1386 1385 1385 1384 1383
1435 1435 1434 1433 1432 1430 1428 1426 1424 1422 1420 1418 1416 1414 1412 1410 1409 1407 1405 1403 1401 1398 1397 1396 1394 1393 1391 1390 1389 1388 1387 1386 1385 1385 1384 1384 1383 1382 1382 1381 1380 1380 1379 1378
1432 1431 1430 1429 1428 1426 1424 1422 1420 1418 1416 1414 1412 1409 1407 1405 1404 1402 1400 1398 1396 1394 1392 1391 1389 1387 1386 1385 1384 1383 1382 1381 1381 1380 1379 1379 1378 1377 1376 1376 1375 1375 1374 1373
1427 1426 1425 1424 1423 1422 1420 1418 1416 1414 1412 1410 1407 1405 1403 1401 1399 1397 1395 1392 1391 1390 1388 1386 1384 1382 1381 1380 1379 1378 1377 1376 1376 1375 1375 1374 1373 1372 1372 1371 1370 1370 1369 1368
1423 1422 1420 1419 1418 1416 1415 1414 1412 1410 1408 1405 1403 1401 1398 1396 1394 1392 1390 1389 1386 1385 1383 1381 1379 1378 1377 1376 1375 1373 1373 1372 1371 1370 1370 1369 1368 1367 1367 1366 1365 1365 1364 1363
1418 1417 1416 1414 1413 1411 1410 1408 1407 1405 1403 1401 1399 1396 1394 1392 1390 1388 1385 1384 1382 1380 1378 1377 1375 1374 1373 1371 1370 1369 1368 1367 1366 1366 1365 1364 1364 1363 1362 1361 1361 1360 1359 1359
1414 1412 1411 1409 1408 1406 1404 1403 1402 1400 1398 1396 1394 1392 1390 1388 1385 1384 1382 1379 1378 1376 1374 1372 1371 1369 1368 1367 1365 1364 1363 1362 1362 1361 1361 1360 1359 1358 1358 1357 1356 1355 1355 1354
1409 1407 1405 1404 1402 1401 1399 1397 1396 1394 1393 1391 1389 1387 1385 1384 1381 1379 1377 1375 1373 1371 1369 1368 1366 1365 1364 1362 1361 1360 1359 1358 1358 1357 1356 1355 1355 1354 1353 1352 1351 1351 1350 1349
1403 1402 1400 1398 1397 1395 1394 1392 1390 1388 1387 1385 1383 1382 1380 1378 1376 1374 1372 1370 1369 1367 1365 1363 1362 1361 1359 1358 1357 1356 1355 1354 1353 1353 1352 1351 1350 1350 1349 1348 1347 1346 1346 1345
1397 1395 1394 1392 1390 1389 1388 1386 1384 1383 1381 1379 1377 1376 1374 1373 1371 1369 1367 1365 1364 1362 1360 1359 1357 1356 1355 1353 1352 1351 1351 1350 1349 1348 1348 1347 1346 1345 1344 1344 1343 1342 1341 1341